UmKA 1 (RS40S)
1 57172U 23091G   26040.77971367  .00007656  00000-0  36661-3 0  9995
2 57172  97.5242  99.9990 0012799 198.1441 161.9339 15.19164204144659
CubeBel-2 (EU11S)
1 57175U 23091K   26040.77754610  .00013857  00000-0  54217-3 0  9995
2 57175  97.5236 103.0509 0010228 197.8074 162.2807 15.25899964144852
RS-38S
1 57189U 23091Z   26040.87667791  .00017695  00000-0  57976-3 0  9993
2 57189  97.5258 108.1238 0008460 157.7650 202.3959 15.31679722145171
SONATE-2
1 59112U 24043Q   26040.38609264  .00039391  00000-0  72231-3 0  9994
2 59112  97.5362 184.0121 0008300 315.4602  44.5980 15.49155002108046
MO-122
1 60209U 24125G   26040.59355765  .00039182  00000-0  67040-3 0  9991
2 60209  97.2489 256.1876 0012793 335.4358  24.6283 15.51068396 89710
GRBBeta
1 60237U 24128C   26040.81342613  .00004968  00000-0  34789-3 0  9996
2 60237  61.9909 302.7889 0053821 108.5330 252.1621 15.05461148 87087
Curium One
1 60242U 24128H   26040.81720470  .00009346  00000-0  56269-3 0  9995
2 60242  61.9797 296.1582 0053676 105.3896 255.3138 15.10204882 87202
ROBUSTA-3A
1 60243U 24128J   26040.25155068  .00010710  00000-0  65482-3 0  9993
2 60243  61.9872 299.9597 0054068 102.7975 257.9169 15.09508530 87093
CatSat
1 60246U 24125J   26040.55558699  .00043829  00000-0  88247-3 0  9994
2 60246  97.2252 252.5056 0028660 295.0162  64.8112 15.46009402 87591
HYPERVIEW-1G (RS66S)
1 61772U 24199AP  26040.84676043  .00057881  00000-0  87916-3 0  9991
2 61772  97.3140 276.2633 0010494  33.7047 326.4872 15.54331430114771
AO-123
1 61781U 24199AY  26040.88820656  .00010479  00000-0  32513-3 0  9991
2 61781  97.3199 270.7347 0015652  49.1713 311.0884 15.33458080114409
HADES-R (SO-124)
1 62690U 25009CK  26032.99082617  .05625566  23964-5  28010-2 0  9991
2 62690  97.3531 123.7793 0009683 299.0009  61.0309 16.20765875 58841
HYDRA-T
1 62692U 25009CM  26028.19742799  .10589489  24473-5  20739-2 0  9999
2 62692  97.3569 119.0624 0010828 297.3030  62.7162 16.31546071 58115
JINJUSat 1B
1 63210U 25052A   26040.66466843  .00018130  00000-0  64362-3 0  9998
2 63210  97.4156 297.5397 0003923 146.9661 213.1825 15.29092948 50587
NUSHSAT 1
1 63211U 25052B   26040.67712530  .00021236  00000-0  71943-3 0  9991
2 63211  97.4136 297.7714 0003699 148.2350 211.9114 15.30585103 50603
TEVEL2-4
1 63213U 25052D   26040.64206662  .00019600  00000-0  68250-3 0  9993
2 63213  97.4061 297.1578 0002504 153.5451 206.5917 15.29710976 50583
TEVEL2-5
1 63214U 25052E   26040.65095497  .00019635  00000-0  68594-3 0  9996
2 63214  97.4058 297.1445 0002495 154.5312 205.6052 15.29604772 50585
TEVEL2-6
1 63215U 25052F   26040.66000763  .00019974  00000-0  69865-3 0  9998
2 63215  97.4058 297.1403 0002484 155.9693 204.1664 15.29560851 50587
TEVEL2-1
1 63217U 25052H   26040.65089071  .00019125  00000-0  67712-3 0  9995
2 63217  97.4034 296.8905 0001983 171.6394 188.4880 15.29173699 50575
TEVEL2-3
1 63218U 25052J   26040.64907315  .00019279  00000-0  68191-3 0  9997
2 63218  97.4039 296.8982 0001979 172.0595 188.0676 15.29205133 50577
TEVEL2-2
1 63219U 25052K   26040.65157892  .00019289  00000-0  68284-3 0  9990
2 63219  97.4037 296.8915 0001929 172.6405 187.4864 15.29175857 50574
TEVEL2-9
1 63237U 25052AD  26040.67484336  .00017541  00000-0  65280-3 0  9990
2 63237  97.4094 296.5310 0004876 223.0121 137.0738 15.27543775 50536
TEVEL2-7
1 63238U 25052AE  26040.69539074  .00016981  00000-0  63581-3 0  9992
2 63238  97.4100 296.5117 0005038 223.3214 136.7629 15.27348804 50538
TEVEL2-8
1 63239U 25052AF  26040.63647791  .00017183  00000-0  64383-3 0  9999
2 63239  97.4100 296.4356 0004977 224.7122 135.3716 15.27322408 50520
HYDRA-W
1 63490U 25052BL  26040.82874457  .00128369  00000-0  19688-2 0  9996
2 63490  97.3997 300.9215 0004606 175.7841 184.3452 15.53846400 50858
HADES-ICM (SO-125)
1 63492U 25052BN  26040.66956722  .00092043  00000-0  16333-2 0  9999
2 63492  97.3992 300.2513 0004549 189.1170 171.0000 15.49888500 50796
Dragonfly
1 65729U 98067XH  26031.05194254  .08662331  12285-4  96629-3 0  9997
2 65729  51.6000 237.6139 0006569 265.0285  94.9990 16.36242872 20999
RSP-03
1 65732U 98067XL  26040.65947750  .00986718  52171-3  14470-2 0  9994
2 65732  51.6146 190.8360 0007808 307.6496  52.3806 16.04479219 22486
BOTAN
1 65942U 98067XP  26040.47075433  .00382643  00000-0  15228-2 0  9997
2 65942  51.6175 198.6624 0006416 288.6720  71.3587 15.85050158 19109
CEVROSAT1
1 66309U 25248S   26040.48251379  .00004994  00000-0  24783-3 0  9999
2 66309  45.4049  85.7036 0002149  19.4614 340.6354 15.18944889 15088
SPIRONE
1 66657U 25274H   26040.80301318  .00003231  00000-0  31666-3 0  9990
2 66657  97.7416 332.0233 0013964  79.2613 281.0178 14.92883600 11216
K-HERO
1 66660U 25274L   26040.77811663  .00002395  00000-0  23322-3 0  9999
2 66660  97.7429 332.0620 0015853  82.9826 277.3196 14.93356986 11211
SNUGLITE-III DURI
1 66661U 25274M   26040.77174538  .00002337  00000-0  22705-3 0  9993
2 66661  97.7428 332.0675 0016520  84.0104 276.2998 14.93460243 11215
SilverSat
1 66909U 98067XV  26040.71908120  .00125958  00000-0  13285-2 0  9991
2 66909  51.6267 207.1313 0002403 252.0284 108.0449 15.63320191 10804
SAKHACUBE-CHOLBON
1 67290U 25313AU  26040.81684039  .00011954  00000-0  52203-3 0  9994
2 67290  97.4058 117.6196 0011026  85.7318 274.5179 15.22216611  6583
QMR-KWT
1 67291U 25313AV  26040.81309984  .00016126  00000-0  69602-3 0  9995
2 67291  97.4057 117.6246 0010714  85.3921 274.8539 15.22547119  6581
IO-86
1 40931U          25360.30710720  .00000000  00000-0  12800-3 0    00
2 40931   6.0006 332.5373 0012733 338.8432   8.1437 14.79075515    01
